TimeEST,TemperatureF,Dew PointF,Humidity,Sea Level PressureIn,VisibilityMPH,Wind Direction,Wind SpeedMPH,Gust SpeedMPH,PrecipitationIn,Events,Conditions,WindDirDegrees,DateUTC
12:54 AM,41.0,37.9,89,29.44,10.0,West,12.7,-,N/A,,Overcast,280,2012-12-19 05:54:00
1:19 AM,41.0,37.4,87,29.45,10.0,WNW,13.8,21.9,N/A,,Overcast,290,2012-12-19 06:19:00
1:27 AM,41.0,37.4,87,29.45,9.0,WNW,12.7,-,N/A,,Overcast,290,2012-12-19 06:27:00
1:54 AM,42.1,37.9,85,29.45,10.0,West,12.7,-,N/A,,Overcast,280,2012-12-19 06:54:00
2:01 AM,42.8,37.4,81,29.45,10.0,West,12.7,-,N/A,,Overcast,280,2012-12-19 07:01:00
2:54 AM,42.1,37.0,82,29.45,10.0,West,15.0,21.9,N/A,,Overcast,280,2012-12-19 07:54:00
3:54 AM,41.0,35.1,79,29.46,10.0,WNW,13.8,23.0,N/A,,Overcast,290,2012-12-19 08:54:00
4:54 AM,41.0,34.0,76,29.47,10.0,WNW,16.1,-,N/A,,Mostly Cloudy,300,2012-12-19 09:54:00
5:54 AM,41.0,33.1,73,29.49,10.0,WNW,15.0,23.0,N/A,,Overcast,290,2012-12-19 10:54:00
6:54 AM,39.9,33.1,77,29.52,10.0,WNW,15.0,20.7,0.00,Rain,Light Rain,290,2012-12-19 11:54:00
7:54 AM,39.9,33.1,77,29.53,10.0,WNW,15.0,24.2,0.00,Rain,Light Rain,300,2012-12-19 12:54:00
8:54 AM,41.0,32.0,70,29.55,10.0,NW,23.0,34.5,0.00,,Overcast,310,2012-12-19 13:54:00
9:54 AM,43.0,32.0,65,29.57,10.0,NW,21.9,32.2,0.00,,Mostly Cloudy,320,2012-12-19 14:54:00
10:54 AM,43.0,30.9,62,29.58,10.0,NW,18.4,29.9,N/A,,Mostly Cloudy,310,2012-12-19 15:54:00
11:54 AM,44.1,30.9,60,29.61,10.0,NW,16.1,26.5,N/A,,Mostly Cloudy,310,2012-12-19 16:54:00
12:54 PM,44.1,30.0,58,29.64,10.0,NW,15.0,25.3,N/A,,Overcast,320,2012-12-19 17:54:00
1:54 PM,44.1,30.0,58,29.67,10.0,NW,17.3,31.1,N/A,,Mostly Cloudy,320,2012-12-19 18:54:00
2:54 PM,44.1,28.9,55,29.72,10.0,NW,25.3,33.4,N/A,,Mostly Cloudy,320,2012-12-19 19:54:00
3:54 PM,43.0,28.9,58,29.76,10.0,NNW,19.6,26.5,N/A,,Mostly Cloudy,330,2012-12-19 20:54:00
4:54 PM,42.1,28.9,60,29.80,10.0,NW,16.1,25.3,N/A,,Mostly Cloudy,320,2012-12-19 21:54:00
5:54 PM,41.0,28.9,62,29.84,10.0,NNW,17.3,27.6,N/A,,Scattered Clouds,330,2012-12-19 22:54:00
6:54 PM,41.0,28.9,62,29.89,10.0,NNW,13.8,23.0,N/A,,Mostly Cloudy,330,2012-12-19 23:54:00
7:54 PM,39.9,28.9,65,29.94,10.0,NNW,10.4,-,N/A,,Mostly Cloudy,330,2012-12-20 00:54:00
8:54 PM,39.0,28.9,67,29.96,10.0,NNW,11.5,20.7,N/A,,Mostly Cloudy,340,2012-12-20 01:54:00
9:54 PM,39.0,28.9,67,29.99,10.0,NNW,11.5,18.4,N/A,,Mostly Cloudy,340,2012-12-20 02:54:00
10:54 PM,37.9,28.0,68,30.02,10.0,NNW,9.2,-,N/A,,Mostly Cloudy,330,2012-12-20 03:54:00
11:54 PM,37.9,28.0,68,30.03,10.0,NW,10.4,-,N/A,,Mostly Cloudy,320,2012-12-20 04:54:00